Weather History for Rome Ciampino, Italy

Change the Weather History Date:

Thursday, April 26, 2012

  Actual Average Record
Temperature  
Mean Temperature 58 °F -  
Max Temperature 71 °F 72 °F 73 °F (1998)
Min Temperature 46 °F 51 °F 42 °F (1997)
Degree Days  
Heating Degree Days 6    
Growing Degree Days 8 (Base 50)    
Moisture  
Dew Point 48 °F    
Average Humidity 71    
Maximum Humidity 94    
Minimum Humidity 38    
Precipitation  
Precipitation 0.00 in 0.07 in - ()
Sea Level Pressure  
Sea Level Pressure 30.09 in    
Wind  
Wind Speed 4 mph ()    
Max Wind Speed 12 mph    
Max Gust Speed -    
Visibility 6.2 miles    
Events      
Averages and records for this station are not official NWS values.
T = Trace of Precipitation, MM = Missing Value Source: Averaged Metar Reports

Daily Weather History Graph

Daily Weather History Graph

Search for Another Location

Airport:

Trip Planner

Search our weather history database for the weather conditions in past years. The results will help you decide how hot, cold, wet, or windy it might be!

Date:

Astronomy

Apr. 26, 2012 Rise Set
Actual Time 6:12 AM CEST 8:02 PM CEST
Civil Twilight 5:42 AM CEST 8:32 PM CEST
Nautical Twilight 5:06 AM CEST 9:09 PM CEST
Astronomical Twilight 4:27 AM CEST 9:48 PM CEST
Moon 9:34 AM CEST No Moon Set
Length of Visible Light 14h 50m
Length of Day
13h 50m
Waxing Crescent, 22% of the Moon is Illuminated
Apr 26
Waxing Crescent
Apr 29
First Quarter
May 6
Full
May 12
Last Quarter
May 21
New

Hourly Weather History & Observations

Time (CEST) Temp. Windchill Dew Point Humidity Pressure Visibility Wind Dir Wind Speed Gust Speed Precip Events Conditions
12:15 AM 50.0 °F - 46.4 °F 87% 30.06 in - SE 3.5 mph - N/A   Clear
12:45 AM 50.0 °F - 48.2 °F 94% 30.06 in - ESE 2.3 mph - N/A   Clear
1:15 AM 50.0 °F - 46.4 °F 87% 30.06 in - East 3.5 mph - N/A   Clear
1:45 AM 50.0 °F - 46.4 °F 87% 30.06 in - SSE 1.2 mph - N/A   Clear
2:15 AM 48.2 °F - 44.6 °F 87% 30.06 in - SSE 2.3 mph - N/A   Clear
2:45 AM 48.2 °F - 46.4 °F 93% 30.06 in - South 2.3 mph - N/A   Clear
3:15 AM 48.2 °F - 46.4 °F 93% 30.06 in - West 1.2 mph - N/A   Clear
3:45 AM 48.2 °F - 46.4 °F 93% 30.06 in - West 1.2 mph - N/A   Clear
4:15 AM 46.4 °F - 44.6 °F 93% 30.06 in - Calm Calm - N/A   Clear
4:45 AM 46.4 °F - 44.6 °F 93% 30.06 in - SE 1.2 mph - N/A   Clear
5:15 AM 48.2 °F - 46.4 °F 93% 30.06 in - East 1.2 mph - N/A   Clear
5:45 AM 46.4 °F - 44.6 °F 93% 30.06 in - ENE 1.2 mph - N/A   Clear
6:15 AM 46.4 °F 45.2 °F 44.6 °F 93% 30.06 in 6.2 mi East 3.5 mph - N/A   Partly Cloudy
6:45 AM 46.4 °F - 44.6 °F 93% 30.06 in 6.2 mi East 2.3 mph - N/A   Partly Cloudy
7:15 AM 48.2 °F - 46.4 °F 93% 30.09 in 6.2 mi NE 2.3 mph - N/A   Partly Cloudy
7:45 AM 51.8 °F - 50.0 °F 94% 30.09 in 6.2 mi NE 2.3 mph - N/A   Partly Cloudy
8:15 AM 51.8 °F - 48.2 °F 88% 30.09 in 6.2 mi North 1.2 mph - N/A   Partly Cloudy
8:45 AM 53.6 °F - 50.0 °F 88% 30.12 in 6.2 mi NW 1.2 mph - N/A   Partly Cloudy
9:15 AM 57.2 °F - 51.8 °F 82% 30.12 in 6.2 mi NNW 3.5 mph - N/A   Partly Cloudy
9:45 AM 59.0 °F - 51.8 °F 77% 30.12 in 6.2 mi NNW 2.3 mph - N/A   Partly Cloudy
10:15 AM 60.8 °F - 50.0 °F 68% 30.12 in 6.2 mi North 1.2 mph - N/A   Partly Cloudy
10:45 AM 62.6 °F - 50.0 °F 63% 30.12 in - WNW 1.2 mph - N/A   Clear
11:15 AM 64.4 °F - 48.2 °F 56% 30.12 in - ENE 3.5 mph - N/A   Clear
11:45 AM 66.2 °F - 44.6 °F 46% 30.12 in - SSW 8.1 mph - N/A   Clear
12:15 PM 69.8 °F - 46.4 °F 43% 30.12 in - SSW 9.2 mph - N/A   Clear
12:45 PM 69.8 °F - 42.8 °F 38% 30.12 in - South 9.2 mph - N/A   Clear
1:15 PM 69.8 °F - 44.6 °F 40% 30.12 in - SSW 6.9 mph - N/A   Clear
1:45 PM 71.6 °F - 46.4 °F 41% 30.12 in - SSW 6.9 mph - N/A   Clear
2:15 PM 71.6 °F - 46.4 °F 41% 30.09 in 6.2 mi South 8.1 mph - N/A   Partly Cloudy
2:45 PM 71.6 °F - 46.4 °F 41% 30.09 in - South 8.1 mph - N/A   Clear
3:15 PM 71.6 °F - 51.8 °F 50% 30.09 in - SSE 10.4 mph - N/A   Clear
3:45 PM 71.6 °F - 51.8 °F 50% 30.09 in - SSW 10.4 mph - N/A   Clear
4:15 PM 69.8 °F - 51.8 °F 53% 30.09 in - SSW 11.5 mph - N/A   Clear
4:45 PM 69.8 °F - 50.0 °F 49% 30.09 in - SSW 11.5 mph - N/A   Clear
5:15 PM 69.8 °F - 50.0 °F 49% 30.09 in - SSW 10.4 mph - N/A   Clear
5:45 PM 69.8 °F - 50.0 °F 49% 30.09 in - SSW 8.1 mph - N/A   Clear
6:15 PM 69.8 °F - 50.0 °F 49% 30.09 in - SSW 8.1 mph - N/A   Clear
6:45 PM 69.8 °F - 48.2 °F 46% 30.09 in - SSW 6.9 mph - N/A   Clear
7:15 PM 68.0 °F - 50.0 °F 52% 30.09 in - SSW 6.9 mph - N/A   Clear
7:45 PM 66.2 °F - 50.0 °F 56% 30.09 in - SW 4.6 mph - N/A   Clear
8:15 PM 64.4 °F - 53.6 °F 68% 30.09 in - SW 5.8 mph - N/A   Clear
8:45 PM 62.6 °F - 51.8 °F 68% 30.09 in - SW 5.8 mph - N/A   Clear
9:15 PM 60.8 °F - 51.8 °F 72% 30.12 in - SSW 3.5 mph - N/A   Clear
9:45 PM 60.8 °F - 53.6 °F 77% 30.12 in - Calm Calm - N/A   Clear
10:15 PM 57.2 °F - 51.8 °F 82% 30.12 in - NNE 2.3 mph - N/A   Clear
10:45 PM 57.2 °F - 51.8 °F 82% 30.12 in - NE 3.5 mph - N/A   Clear
11:15 PM 59.0 °F - 51.8 °F 77% 30.12 in - East 4.6 mph - N/A   Clear
11:45 PM 57.2 °F - 51.8 °F 82% 30.12 in - East 2.3 mph - N/A   Clear